Time,TemperatureF,DewpointF,PressureIn,WindDirection,WindDirectionDegrees,WindSpeedMPH,WindSpeedGustMPH,Humidity,HourlyPrecipIn,Conditions,Clouds,dailyrainin,SoftwareType,DateUTC
2014-09-15 00:01:00,64.4,57.4,30.12,SE,135,2.7,3.6,78,0.00,,,0.00,VWS V15.00,2014-09-15 05:01:00,
2014-09-15 00:06:00,64.4,57.4,30.15,SE,135,4.9,5.8,78,0.00,,,0.00,VWS V15.00,2014-09-15 05:06:00,
2014-09-15 00:11:00,64.4,57.4,30.15,SE,135,3.6,4.9,78,0.00,,,0.00,VWS V15.00,2014-09-15 05:11:00,
2014-09-15 00:16:00,64.4,57.4,30.15,SE,135,3.6,4.0,78,0.00,,,0.00,VWS V15.00,2014-09-15 05:16:00,
2014-09-15 00:20:00,64.4,57.4,30.12,SE,135,5.4,5.4,78,0.00,,,0.00,VWS V15.00,2014-09-15 05:20:00,
2014-09-15 00:25:00,64.4,57.4,30.12,SE,135,4.0,5.4,78,0.00,,,0.00,VWS V15.00,2014-09-15 05:25:00,
2014-09-15 00:30:00,64.4,57.8,30.12,SSE,158,5.4,6.3,79,0.00,,,0.00,VWS V15.00,2014-09-15 05:30:00,
2014-09-15 00:35:00,64.6,57.6,30.12,SSE,158,4.0,4.0,78,0.00,,,0.00,VWS V15.00,2014-09-15 05:35:00,
2014-09-15 00:40:00,64.6,57.6,30.12,South,180,3.1,3.1,78,0.00,,,0.00,VWS V15.00,2014-09-15 05:40:00,
2014-09-15 00:45:00,64.8,57.8,30.12,SSE,158,4.9,4.9,78,0.00,,,0.00,VWS V15.00,2014-09-15 05:45:00,
2014-09-15 00:50:00,64.8,57.8,30.12,South,180,3.1,3.1,78,0.00,,,0.00,VWS V15.00,2014-09-15 05:50:00,
2014-09-15 00:55:00,64.8,57.8,30.12,SSE,158,5.4,5.4,78,0.00,,,0.00,VWS V15.00,2014-09-15 05:55:00,
2014-09-15 01:00:00,64.8,57.8,30.12,SE,135,4.0,4.9,78,0.00,,,0.00,VWS V15.00,2014-09-15 06:00:00,
2014-09-15 01:03:00,64.8,57.8,30.12,SE,135,5.8,5.8,78,0.00,,,0.00,VWS V15.00,2014-09-15 06:03:00,
2014-09-15 01:08:00,64.8,57.8,30.12,SE,135,4.9,4.9,78,0.00,,,0.00,VWS V15.00,2014-09-15 06:08:00,
2014-09-15 01:13:00,64.8,57.8,30.12,SSE,158,3.6,4.0,78,0.00,,,0.00,VWS V15.00,2014-09-15 06:13:00,
2014-09-15 01:18:00,64.8,57.8,30.12,SSE,158,3.6,3.6,78,0.00,,,0.00,VWS V15.00,2014-09-15 06:18:00,
2014-09-15 01:23:00,64.8,58.1,30.12,SE,135,0.0,0.0,79,0.00,,,0.00,VWS V15.00,2014-09-15 06:23:00,
2014-09-15 01:28:00,64.8,58.1,30.12,SSE,158,0.0,0.0,79,0.00,,,0.00,VWS V15.00,2014-09-15 06:28:00,
2014-09-15 01:33:00,64.6,57.9,30.12,SSE,158,0.0,0.0,79,0.00,,,0.00,VWS V15.00,2014-09-15 06:33:00,
2014-09-15 01:38:00,64.6,58.3,30.12,SSE,158,0.0,0.0,80,0.00,,,0.00,VWS V15.00,2014-09-15 06:38:00,
2014-09-15 01:42:00,64.4,58.1,30.12,South,180,0.0,0.0,80,0.00,,,0.00,VWS V15.00,2014-09-15 06:42:00,
2014-09-15 01:47:00,64.4,58.1,30.12,SSE,158,0.0,0.0,80,0.00,,,0.00,VWS V15.00,2014-09-15 06:47:00,
2014-09-15 01:52:00,64.6,58.6,30.15,SE,135,0.0,0.0,81,0.00,,,0.00,VWS V15.00,2014-09-15 06:52:00,
2014-09-15 01:57:00,64.4,58.5,30.15,SE,135,0.0,0.0,81,0.00,,,0.00,VWS V15.00,2014-09-15 06:57:00,
2014-09-15 02:02:00,64.4,58.5,30.12,SSE,158,0.0,0.0,81,0.00,,,0.00,VWS V15.00,2014-09-15 07:02:00,
2014-09-15 02:07:00,64.4,58.8,30.12,South,180,0.0,0.0,82,0.00,,,0.00,VWS V15.00,2014-09-15 07:07:00,
2014-09-15 02:12:00,64.4,58.8,30.12,SE,135,0.0,0.0,82,0.00,,,0.00,VWS V15.00,2014-09-15 07:12:00,
2014-09-15 02:17:00,64.4,59.1,30.12,SE,135,0.0,0.0,83,0.00,,,0.00,VWS V15.00,2014-09-15 07:17:00,
2014-09-15 02:22:00,64.4,59.5,30.12,SW,225,0.0,0.0,84,0.00,,,0.00,VWS V15.00,2014-09-15 07:22:00,
2014-09-15 02:27:00,64.4,59.5,30.12,SE,135,0.0,2.2,84,0.00,,,0.00,VWS V15.00,2014-09-15 07:27:00,
2014-09-15 02:32:00,64.4,59.5,30.12,SW,225,2.7,2.7,84,0.00,,,0.00,VWS V15.00,2014-09-15 07:32:00,
2014-09-15 02:37:00,64.2,59.6,30.12,SW,225,4.0,4.0,85,0.00,,,0.00,VWS V15.00,2014-09-15 07:37:00,
2014-09-15 02:42:00,64.2,59.6,30.12,SW,225,3.1,3.1,85,0.00,,,0.00,VWS V15.00,2014-09-15 07:42:00,
2014-09-15 02:47:00,64.2,59.6,30.12,South,180,0.0,0.0,85,0.00,,,0.00,VWS V15.00,2014-09-15 07:47:00,
2014-09-15 02:52:00,64.4,59.8,30.12,SE,135,3.1,3.1,85,0.00,,,0.00,VWS V15.00,2014-09-15 07:52:00,
2014-09-15 02:57:00,64.4,60.1,30.12,South,180,0.0,3.6,86,0.00,,,0.00,VWS V15.00,2014-09-15 07:57:00,
2014-09-15 03:02:00,64.2,60.0,30.12,SSW,202,0.0,0.0,86,0.00,,,0.00,VWS V15.00,2014-09-15 08:02:00,
2014-09-15 03:04:00,64.4,60.1,30.12,South,180,2.7,2.7,86,0.00,,,0.00,VWS V15.00,2014-09-15 08:04:00,
2014-09-15 03:09:00,64.4,60.1,30.12,ESE,112,0.0,0.0,86,0.00,,,0.00,VWS V15.00,2014-09-15 08:09:00,
2014-09-15 03:14:00,64.6,60.3,30.12,SSE,158,0.0,0.0,86,0.00,,,0.00,VWS V15.00,2014-09-15 08:14:00,
2014-09-15 03:19:00,64.6,60.3,30.15,South,180,3.1,3.1,86,0.00,,,0.00,VWS V15.00,2014-09-15 08:19:00,
2014-09-15 03:24:00,64.8,60.2,30.15,West,270,0.0,3.1,85,0.00,,,0.00,VWS V15.00,2014-09-15 08:24:00,
2014-09-15 03:29:00,64.8,60.2,30.15,SE,135,0.0,0.0,85,0.00,,,0.00,VWS V15.00,2014-09-15 08:29:00,
2014-09-15 03:34:00,64.8,60.2,30.15,WSW,248,0.0,2.7,85,0.00,,,0.00,VWS V15.00,2014-09-15 08:34:00,
2014-09-15 03:39:00,64.8,60.2,30.15,SW,225,0.0,0.0,85,0.00,,,0.00,VWS V15.00,2014-09-15 08:39:00,
2014-09-15 03:44:00,64.8,60.2,30.15,SW,225,0.0,0.0,85,0.00,,,0.00,VWS V15.00,2014-09-15 08:44:00,
2014-09-15 03:49:00,64.8,60.2,30.15,SSW,202,4.9,4.9,85,0.00,,,0.00,VWS V15.00,2014-09-15 08:49:00,
2014-09-15 03:54:00,64.9,60.7,30.15,SE,135,0.0,0.0,86,0.00,,,0.00,VWS V15.00,2014-09-15 08:54:00,
2014-09-15 03:59:00,64.6,60.6,30.15,South,180,4.9,4.9,87,0.00,,,0.00,VWS V15.00,2014-09-15 08:59:00,
2014-09-15 04:04:00,64.4,60.5,30.15,SW,225,0.0,4.9,87,0.00,,,0.00,VWS V15.00,2014-09-15 09:04:00,
2014-09-15 04:09:00,64.4,60.8,30.15,South,180,3.1,3.1,88,0.00,,,0.00,VWS V15.00,2014-09-15 09:09:00,
2014-09-15 04:14:00,64.2,60.9,30.15,South,180,0.0,2.7,89,0.00,,,0.00,VWS V15.00,2014-09-15 09:14:00,
2014-09-15 04:19:00,64.2,61.2,30.15,SW,225,3.1,3.6,90,0.00,,,0.00,VWS V15.00,2014-09-15 09:19:00,
2014-09-15 04:24:00,64.2,61.5,30.15,SSE,158,3.6,3.6,91,0.00,,,0.00,VWS V15.00,2014-09-15 09:24:00,
2014-09-15 04:29:00,64.4,61.7,30.15,SE,135,0.0,2.2,91,0.00,,,0.00,VWS V15.00,2014-09-15 09:29:00,
2014-09-15 04:34:00,64.4,61.7,30.15,South,180,2.7,2.7,91,0.00,,,0.00,VWS V15.00,2014-09-15 09:34:00,
2014-09-15 04:39:00,64.4,61.7,30.15,SSE,158,0.0,3.1,91,0.00,,,0.00,VWS V15.00,2014-09-15 09:39:00,
2014-09-15 04:44:00,64.4,61.7,30.15,SE,135,3.1,4.9,91,0.00,,,0.00,VWS V15.00,2014-09-15 09:44:00,
2014-09-15 04:49:00,64.4,61.7,30.15,South,180,4.9,4.9,91,0.00,,,0.00,VWS V15.00,2014-09-15 09:49:00,
2014-09-15 04:54:00,64.4,61.7,30.15,SSW,202,3.1,3.1,91,0.00,,,0.00,VWS V15.00,2014-09-15 09:54:00,
2014-09-15 04:59:00,64.4,61.7,30.15,SW,225,3.6,4.0,91,0.00,,,0.00,VWS V15.00,2014-09-15 09:59:00,
2014-09-15 05:04:00,64.4,61.7,30.15,East,90,0.0,2.7,91,0.00,,,0.00,VWS V15.00,2014-09-15 10:04:00,
2014-09-15 05:09:00,64.2,61.8,30.15,SE,135,3.1,3.6,92,0.00,,,0.00,VWS V15.00,2014-09-15 10:09:00,
2014-09-15 05:14:00,64.2,61.8,30.15,SW,225,6.3,7.2,92,0.00,,,0.00,VWS V15.00,2014-09-15 10:14:00,
2014-09-15 05:19:00,64.2,62.2,30.15,SW,225,2.7,2.7,93,0.00,,,0.00,VWS V15.00,2014-09-15 10:19:00,
2014-09-15 05:24:00,64.0,62.0,30.15,SSE,158,0.0,0.0,93,0.00,,,0.00,VWS V15.00,2014-09-15 10:24:00,
2014-09-15 05:29:00,64.0,62.3,30.15,SSW,202,2.7,5.8,94,0.00,,,0.00,VWS V15.00,2014-09-15 10:29:00,
2014-09-15 05:34:00,64.0,62.3,30.15,SSE,158,0.0,0.0,94,0.00,,,0.00,VWS V15.00,2014-09-15 10:34:00,
2014-09-15 05:39:00,63.9,62.1,30.15,SE,135,3.6,3.6,94,0.00,,,0.00,VWS V15.00,2014-09-15 10:39:00,
2014-09-15 05:44:00,63.9,62.4,30.15,SSE,158,4.0,4.0,95,0.00,,,0.00,VWS V15.00,2014-09-15 10:44:00,
2014-09-15 05:49:00,63.9,62.4,30.15,SSE,158,0.0,0.0,95,0.00,,,0.00,VWS V15.00,2014-09-15 10:49:00,
2014-09-15 05:54:00,63.9,62.4,30.15,SW,225,0.0,0.0,95,0.00,,,0.00,VWS V15.00,2014-09-15 10:54:00,
2014-09-15 05:59:00,64.0,62.6,30.15,SW,225,0.0,0.0,95,0.00,,,0.00,VWS V15.00,2014-09-15 10:59:00,
2014-09-15 06:04:00,63.9,62.4,30.15,SW,225,0.0,0.0,95,0.00,,,0.00,VWS V15.00,2014-09-15 11:04:00,
2014-09-15 06:09:00,63.7,62.2,30.15,SW,225,0.0,0.0,95,0.00,,,0.00,VWS V15.00,2014-09-15 11:09:00,